User: anonymous   Login
Location: Caltech
(34.1382°N, 118.1253°W)
Time: 11:15:45
(UTC-08:00)
Language:

Courier 1B - Orbit

View from above orbital plane
View from above orbital plane
View from above satellite
View from above satellite

Ground track
Ground track

The orbit data is extracted from the following two-line orbital elements,

1 00058U 60013A   15057.79939943  .00000113  00000-0  37313-4 0  9990
2 00058 028.3270 204.6605 0164994 227.5862 131.0617 13.46289203677833
Epoch (UTC): 26 February 2015 19:11:08
Eccentricity: 0.0164994
inclination: 28.3270°
perigee height: 963 km
apogee height: 1209 km
right ascension of ascending node: 204.6605°
argument of perigee: 227.5862°
revolutions per day: 13.46289203
mean anomaly at epoch: 131.0617°
orbit number at epoch: 67783

The dashed part of the orbit path shows where the satellite is in the earth's shadow,  

DLR